Torna al catalogo

THORAD AGENA D DEB

AttivoSSO
NORAD 4859·DEBRIS·🇺🇸 United States

Lanciato Apr 8, 1970 da Vandenberg Space Force Base

Loading…

Prossimi Passaggi (prossime 24 ore)

TLE

AggiornatoSource: Space-Track

Epoca: Sep 14, 2026, 05:27 UTC

1 04859U 70025EP  26257.22716624  .00000267  00000-0  40864-3 0  9992
2 04859  99.9487 357.7225 0047249  81.5486 308.6598 13.61302544779835

Traccia THORAD AGENA D DEB in tempo reale con AllMySat

Download on the App Store